Tracking 20037 objects as of 20-Nov-2019
Live streaming from Space Station
objects crossing your sky now

MOLNIYA 1-80

Track MOLNIYA 1-80 now!
MOLNIYA 1-80 is classified as:


NORAD ID: 21118
Int'l Code: 1991-012A
Perigee: 1,897.7 km
Apogee: 37,670.6 km
Inclination: 64.0 °
Period: 701.6 minutes
Semi major axis: 26155 km
RCS: 6.3095 m2 (large)
Launch date: February 15, 1991
Source: Commonwealth of Independent States (former USSR) (CIS)
Launch site: PLESETSK MISSILE AND SPACE COMPLEX (PKMTR)
aabbcc
Your satellite tracking list
Your tracking list is empty




NASA's NSSDC Master Catalog

Two Line Element Set (TLE):
1 21118U 91012A   19324.27196258 -.00000554  00000-0  00000+0 0  9999
2 21118  64.0077  80.8476 6838585 287.6164  12.6654  2.05242508211702
Source of the keplerian elements: AFSPC